Wichita Jabara, KS

10:53 AM CDT on July 23, 2017 (GMT -0500)
Col Jabara

Weather History for KAAO - November, 2013

Change the Weather History Date:

Tuesday, November 19, 2013

  Actual Average (KIAB) Record (KIAB)
Temperature  
Mean Temperature 51 °F -  
Max Temperature 61 °F 52 °F 77 °F (2007)
Min Temperature 41 °F 33 °F 26 °F (2001)
Degree Days  
Heating Degree Days 14    
Growing Degree Days 1 (Base 50)    
Moisture  
Dew Point 28 °F    
Average Humidity 44    
Maximum Humidity 62    
Minimum Humidity 26    
Precipitation  
Precipitation 0.00 in - - ()
Sea Level Pressure  
Sea Level Pressure 30.04 in    
Wind  
Wind Speed 13 mph (SSE)    
Max Wind Speed 25 mph    
Max Gust Speed 36 mph    
Visibility 10 miles    
Events      
Averages and records for this station are not official NWS values.
T = Trace of Precipitation, MM = Missing Value Source: NWS Daily Summary

Daily Weather History Graph

Daily Weather History Graph

Search for Another Location

Airport or City:

Trip Planner

Search our weather history database for the weather conditions in past years. The results will help you decide how hot, cold, wet, or windy it might be!

Date:

Astronomy

Nov. 19, 2013 Rise Set
Actual Time 7:13 AM CST 5:14 PM CST
Civil Twilight 6:45 AM CST 5:43 PM CST
Nautical Twilight 6:13 AM CST 6:14 PM CST
Astronomical Twilight 5:42 AM CST 6:46 PM CST
Moon 7:07 PM CST (11/19) 8:53 AM CST (11/19)
Length of Visible Light 10h 57m
Length of Day
10h 01m
Waning Gibbous, 96% of the Moon is Illuminated
Nov 19
Waning Gibbous
Nov 25
Last Quarter
Dec 2
New
Dec 9
First Quarter
Dec 17
Full

Hourly Weather History & Observations

Time (CST) Temp. Windchill Dew Point Humidity Pressure Visibility Wind Dir Wind Speed Gust Speed Precip Events Conditions
12:54 AM 41.0 °F 37.1 °F 28.0 °F 60% 30.22 in 10.0 mi SSE 5.8 mph - N/A   Clear
1:54 AM 42.1 °F 37.7 °F 28.0 °F 58% 30.20 in 10.0 mi SSE 6.9 mph - N/A   Clear
2:54 AM 42.1 °F 37.7 °F 28.0 °F 58% 30.19 in 10.0 mi SSE 6.9 mph - N/A   Clear
3:54 AM 42.1 °F 37.7 °F 28.0 °F 58% 30.17 in 10.0 mi SSE 6.9 mph - N/A   Clear
4:54 AM 41.0 °F 36.4 °F 28.0 °F 60% 30.17 in 10.0 mi SSE 6.9 mph - N/A   Clear
5:54 AM 42.1 °F 37.7 °F 28.9 °F 60% 30.16 in 10.0 mi SSE 6.9 mph - N/A   Clear
6:54 AM 42.1 °F 37.1 °F 30.0 °F 62% 30.16 in 10.0 mi SSE 8.1 mph - N/A   Clear
7:54 AM 44.1 °F 38.6 °F 30.9 °F 60% 30.15 in 10.0 mi SSE 10.4 mph - N/A   Clear
8:54 AM 50.0 °F - 32.0 °F 50% 30.14 in 10.0 mi SSE 20.7 mph 27.6 mph N/A   Clear
9:54 AM 54.0 °F - 32.0 °F 43% 30.13 in 10.0 mi South 17.3 mph 23.0 mph N/A   Partly Cloudy
10:54 AM 55.9 °F - 32.0 °F 40% 30.12 in 10.0 mi South 19.6 mph 27.6 mph N/A   Mostly Cloudy
11:54 AM 57.0 °F - 30.0 °F 36% 30.09 in 10.0 mi South 21.9 mph 31.1 mph N/A   Overcast
12:54 PM 61.0 °F - 26.1 °F 26% 30.03 in 10.0 mi SSE 21.9 mph 29.9 mph N/A   Partly Cloudy
1:54 PM 57.9 °F - 26.1 °F 30% 29.99 in 10.0 mi SSE 25.3 mph 35.7 mph N/A   Mostly Cloudy
2:54 PM 59.0 °F - 26.1 °F 28% 29.95 in 10.0 mi SSE 19.6 mph 31.1 mph N/A   Mostly Cloudy
3:54 PM 57.0 °F - 26.1 °F 30% 29.94 in 10.0 mi SSE 17.3 mph 28.8 mph N/A   Clear
4:54 PM 55.0 °F - 27.0 °F 34% 29.94 in 10.0 mi SSE 20.7 mph 31.1 mph N/A   Mostly Cloudy
5:54 PM 52.0 °F - 27.0 °F 38% 29.92 in 10.0 mi SSE 19.6 mph 27.6 mph N/A   Clear
6:54 PM 51.1 °F - 26.1 °F 38% 29.94 in 10.0 mi SSE 17.3 mph 25.3 mph N/A   Clear
7:54 PM 52.0 °F - 27.0 °F 38% 29.94 in 10.0 mi SSE 18.4 mph 26.5 mph N/A   Overcast
8:54 PM 52.0 °F - 27.0 °F 38% 29.91 in 10.0 mi SSE 20.7 mph 29.9 mph N/A   Overcast
9:49 PM 51.8 °F - 28.4 °F 41% 29.90 in 10.0 mi SSE 16.1 mph 29.9 mph N/A   Mostly Cloudy
9:54 PM 52.0 °F - 28.0 °F 40% 29.90 in 10.0 mi SSE 18.4 mph 28.8 mph N/A   Mostly Cloudy
10:38 PM 51.8 °F - 28.4 °F 41% 29.89 in 10.0 mi SSE 21.9 mph 28.8 mph N/A   Scattered Clouds
10:54 PM 50.0 °F - 28.0 °F 43% 29.89 in 10.0 mi South 18.4 mph 26.5 mph N/A   Clear
11:54 PM 51.1 °F - 27.0 °F 39% 29.88 in 10.0 mi South 25.3 mph 33.4 mph N/A   Clear